This is the latest recevied weather packets stored in our database for station/object DG9BJA-13. If no packets are shown the sender has not sent any weather packets the latest 10 day(s).
| Time | Temp. | Humidity | Pressure | Rain* | Wind** | Luminosity | Snow |
|---|---|---|---|---|---|---|---|
| 1777542375 | 14.44° C | 36% | 1031.8 hPa | 0 mm | - | 724 W/m² | - |
| 1777541776 | 14.44° C | 36% | 1031.9 hPa | 0 mm | - | 714 W/m² | - |
| 1777541176 | 14.44° C | 36% | 1031.9 hPa | 0 mm | - | 696 W/m² | - |
| 1777540575 | 13.89° C | 38% | 1031.9 hPa | 0 mm | - | 679 W/m² | - |
| 1777539975 | 13.89° C | 37% | 1031.9 hPa | 0 mm | - | 661 W/m² | - |
| 1777539377 | 13.89° C | 37% | 1031.9 hPa | 0 mm | - | 643 W/m² | - |
| 1777538777 | 13.89° C | 39% | 1031.9 hPa | 0 mm | - | 624 W/m² | - |
| 1777538177 | 13.89° C | 40% | 1031.9 hPa | 0 mm | - | 605 W/m² | - |
| 1777537577 | 13.33° C | 42% | 1032.2 hPa | 0 mm | - | 578 W/m² | - |
| 1777536977 | 12.78° C | 38% | 1032.2 hPa | 0 mm | - | 561 W/m² | - |
| 1777536377 | 12.78° C | 39% | 1032.2 hPa | 0 mm | - | 536 W/m² | - |
| 1777535777 | 12.78° C | 43% | 1032 hPa | 0 mm | - | 512 W/m² | - |
| 1777535177 | 12.22° C | 44% | 1032 hPa | 0 mm | - | 487 W/m² | - |
| 1777534577 | 11.67° C | 43% | 1032.1 hPa | 0 mm | - | 464 W/m² | - |
| 1777533977 | 11.67° C | 43% | 1032.3 hPa | 0 mm | - | 445 W/m² | - |
| 1777533377 | 11.11° C | 45% | 1032.3 hPa | 0 mm | - | 422 W/m² | - |
| 1777532777 | 10.56° C | 45% | 1032.2 hPa | 0 mm | - | 399 W/m² | - |
| 1777532177 | 10.56° C | 47% | 1032.2 hPa | 0 mm | - | 371 W/m² | - |
| 1777531577 | 9.44° C | 50% | 1032.2 hPa | 0 mm | - | 352 W/m² | - |
| 1777530977 | 8.89° C | 53% | 1032 hPa | 0 mm | - | 35 W/m² | - |
| 1777530377 | 8.33° C | 56% | 1031.9 hPa | 0 mm | - | 32 W/m² | - |
| 1777529777 | 8.33° C | 59% | 1032 hPa | 0 mm | - | 30 W/m² | - |
| 1777529177 | 7.78° C | 61% | 1031.9 hPa | 0 mm | - | 28 W/m² | - |
| 1777528577 | 7.22° C | 62% | 1031.8 hPa | 0 mm | - | 28 W/m² | - |
| 1777527977 | 7.22° C | 62% | 1031.8 hPa | 0 mm | - | 47 W/m² | - |
* Rain latest hour (hover to see other rain measurements)
** Current wind speed in m/s (hover to see current wind gust speed)